Regional Weather Roundup
Issued by NWS

Home | Current Version | Previous Version | Graphics & Text | Print | Product List | Glossary On
Versions: 1 2 3 4 5 6 7 8 9 10 11 12 13 14 15 16 17 18 19 20 21 22 23 24 25 26 27 28 29 30 31 32 33 34 35 36 37 38 39 40 41 42 43 44 45 46 47 48 49 50
000
ASUS45 KTFX 241719
RWRMT
MONTANA HOURLY WEATHER ROUNDUP
NATIONAL WEATHER SERVICE GREAT FALLS MT
1119 AM MDT THU JUL 24 2014

NOTE: "FAIR" INDICATES FEW OR NO CLOUDS BELOW 12000 FEET WITH NO
SIGNIFICANT WEATHER AND/OR OBSTRUCTIONS TO VISIBILITY.

* THESE STATIONS ARE NOT UNDER NWS QUALITY CONTROL. THEY DO NOT
   REPORT WEATHER SUCH AS PRECIPITATION OR FOG.

MTZ001>007-043-241800-
WEST OF THE DIVIDE
CITY           SKY/WX    TMP DP  RH WIND       PRES   REMARKS
KALISPELL      PTCLDY    63  37  38 SW13      30.04S
MISSOULA       PTCLDY    61  45  56 NW18      30.13R
BUTTE          SUNNY     64  48  56 N/A       30.06S
MULLAN PASS    LGT RAIN  37  36  96 VRB7G20   30.17R WCI  32
* ESSEX        N/A       50  46  86 SE2        N/A
* LINCOLN      N/A       62  46  56 SW5G11     N/A
* LOOKOUT PASS N/A       46  37  71 SE6G14     N/A
* POLSON       N/A       53  47  80 S4         N/A
* RONAN APT    PTCLDY    54  50  86 N/A        N/A
* SEELEY LAKE  N/A       58  42  55 W7G13      N/A
* THOMP F APT  SUNNY     69  37  31 S10G19     N/A
$$

MTZ008-052>055-241800-
SOUTHWEST MONTANA
CITY           SKY/WX    TMP DP  RH WIND       PRES   REMARKS
BOZEMAN        SUNNY     73  48  41 CALM      29.95F
DILLON         SUNNY     73  39  29 W15G24    29.99F
W YELLOWSTONE  SUNNY     70  36  29 SW14G25   30.16R
* THREE FORKS  SUNNY     75  70  85 NE6        N/A
* BOULDER HILL N/A       63  46  54 NE10       N/A
* MONIDA PASS  N/A       69  31  24 S24G34     N/A
* RAYNOLDS PAS N/A       70  49  47 SE18G31    N/A
* WHITEHALL    N/A       74  50  43 S4G9       N/A
* WISE RIVER   N/A       66  50  56 SW4G9      N/A
$$

MTZ009>010-012-014-046-048-049-054-241800-
EAST SLOPES AND CENTRAL MONTANA
CITY           SKY/WX    TMP DP  RH WIND       PRES   REMARKS
CUT BANK       PTCLDY    66  43  43 W30G36    29.92F
GREAT FALLS    SUNNY     73  52  48 SW9G17    29.92S
HELENA         SUNNY     73  48  41 NW8G20    29.94F
* CONRAD       SUNNY     72  57  59 N/A        N/A
* DEARBORN     N/A       73  49  43 S3G9       N/A
* EAST GLACIER N/A       54  39  57 NW20G27    N/A
* MONARCH      N/A       66  44  45 W6G12      N/A
* PENDROY      N/A       68  53  59 SW1G9      N/A
* SAINT MARY   N/A       55  45  69 SW10G19    N/A
* SWEET GRASS  N/A       67  48  51 W14G19     N/A
* WHITE SULPH  N/A       71  53  53 W4G9       N/A
$$

MTZ011-013-016-021-035-040-045-047-050-051-241800-
NORTH CENTRAL MONTANA
CITY           SKY/WX    TMP DP  RH WIND       PRES   REMARKS
HAVRE          TSTM      77  61  58 W16       29.81F
LEWISTOWN      SUNNY     73  54  51 W9        29.89F
* FORT BENTON  PTCLDY    77  50  39 W10G16    29.86S
* CHESTER      N/A       73  49  43 W13G20     N/A
* DENTON       N/A       75  53  46 NW8G17     N/A
* JUDITH GAP   N/A       72  54  53 VRB12G20    N/A
* LOMA         N/A       75  56  52 SW6        N/A
$$

MTZ017>020-022>027-061-062-241800-
NORTHEAST MONTANA
CITY           SKY/WX    TMP DP  RH WIND       PRES   REMARKS
GLASGOW        SUNNY     82  57  43 SE16      29.76F HI  82
GLENDIVE       PTCLDY    77  61  58 SE6       29.81R
JORDAN         PTCLDY    82  57  43 E10       29.73F HI  82
SIDNEY         PTCLDY    79  63  58 SE8       29.79F
WOLF POINT     PTCLDY    82  61  49 SE8       29.77S HI  83
* BEAVER HILL  N/A       73  61  66 E28G37     N/A
* CIRCLE       N/A       75  63  66 E11        N/A
* LINDSAY DVD  N/A       74  60  62 E17G24     N/A
* NAVAJO       N/A       76  61  60 SE12G19    N/A
$$

MTZ028>042-056>058-241800-
SOUTHCENTRAL AND SOUTHEAST MONTANA
CITY           SKY/WX    TMP DP  RH WIND       PRES   REMARKS
BAKER          PTCLDY    77  61  58 SE18      29.80F
BILLINGS       SUNNY     82  59  46 CALM      29.84F HI  82
LIVINGSTON     SUNNY     82  46  28 NW10      29.91F
MILES CITY     SUNNY     82  61  49 SE10      29.76F HI  83
* LAUREL APT   SUNNY     81  59  47 N/A        N/A   HI  81
* ROUNDUP APT  SUNNY     77  61  58 N/A        N/A
* ALZADA       N/A       83  64  53 N9         N/A   HI  84
* HYSHAM       N/A       83  59  44 NE2G8      N/A   HI  83
* LAME DEER    N/A       82  60  47 W7G12      N/A   HI  82
* REED POINT   N/A       88  50  27 W5         N/A
* ROSCOE HILL  N/A       86  33  15 S8G18      N/A
$$

REGIONAL REPORTS...DAKOTAS
CITY           SKY/WX    TMP DP  RH WIND       PRES   REMARKS
WILLISTON      SUNNY     79  63  58 SE12G20   29.79F
DICKINSON      CLOUDY    70  61  73 E20G26    29.82F
CROSBY         SUNNY     75  66  74 S8        29.82F
TIOGA          SUNNY     73  70  90 SE17G26   29.85F
WATFORD CITY   SUNNY     75  63  66 SE17G22   29.79F
BISMARCK       PTCLDY    73  61  66 E29G35    29.88F
GRAND FORKS    CLOUDY    72  63  73 S3        30.03F
FARGO          CLOUDY    73  57  57 SW8       30.10R
BUFFALO SD     SUNNY     75  64  69 E17G23    29.76F
RAPID CITY     CLOUDY    81  70  69 SE6       29.81F HI  84
$$

REGIONAL REPORTS...WYOMING/IDAHO/WASHINGTON
CITY           SKY/WX    TMP DP  RH WIND       PRES   REMARKS
GILLETTE       SUNNY     95  45  18 SW17G25   29.88S
SHERIDAN       SUNNY     90  61  38 NW10      29.85S
YELLOWSTONE LA SUNNY     70  32  25 W8G20     30.26R
SALMON         SUNNY     75  36  24 W17G30    29.99S
MULLAN PASS    LGT RAIN  37  36  96 VRB7G20   30.17S WCI  32
SAND POINT     CLOUDY    55  43  64 SW14G23   30.12R
SPOKANE        PTSUNNY   57  43  60 S21G26    30.13R
$$

REGIONAL REPORTS...ALBERTA
CITY           SKY/WX    TMP DP  RH WIND       PRES   REMARKS
CALGARY        SUNNY     66  37  34 S20G25    29.71F
LETHBRIDGE     SUNNY     68  43  40 SW24G32   29.85F
MEDICINE HAT   LGT RAIN  66  57  73 SW9       29.81F
EDMONTON       SUNNY     70  57  64 S5        29.61F
WATERTON GATE  N/A       59  34  39 SW24G37    N/A
CARDSTON       N/A       64  43  47 SW12G18    N/A
MILK RIVER     N/A       70  39  32 W25G35     N/A
$$

REGIONAL REPORTS...SASKATCHEWAN
CITY           SKY/WX    TMP DP  RH WIND       PRES   REMARKS
SWIFT CURRENT  PTCLDY    73  61  66 S6        29.79F
MOOSE JAW      PTCLDY    79  64  60 SE10      29.78F
REGINA         SUNNY     75  63  66 S8        29.79F
VAL MARIE      N/A       73  59  62 S8         N/A
ASSINIBOIA     N/A       75  59  58 SE8        N/A
CORONACH       N/A       75  59  58 E10G17     N/A

$$




USA.gov is the U.S. government's official web portal to all federal, state and local government web resources and services.